Weather History for KGYL - February, 2013

Change the Weather History Date:

Thursday, February 21, 2013

  Actual Average (KHCD) Record (KHCD)
Temperature  
Mean Temperature 10 °F -  
Max Temperature 21 °F 33 °F 53 °F (1981)
Min Temperature -2 °F 14 °F -23 °F (2001)
Degree Days  
Heating Degree Days 56    
Moisture  
Dew Point 5 °F    
Average Humidity 72    
Maximum Humidity 85    
Minimum Humidity 59    
Precipitation  
Precipitation 0.00 in - - ()
Sea Level Pressure  
Sea Level Pressure 30.26 in    
Wind  
Wind Speed 4 mph (NE)    
Max Wind Speed 12 mph    
Max Gust Speed -    
Visibility 10 miles    
Events      
Averages and records for this station are not official NWS values.
T = Trace of Precipitation, MM = Missing Value Source: NWS Daily Summary

Daily Weather History Graph

Daily Weather History Graph

Search for Another Location

Airport or City:

Trip Planner

Search our weather history database for the weather conditions in past years. The results will help you decide how hot, cold, wet, or windy it might be!

Date:

Astronomy

Feb. 21, 2013 Rise Set
Actual Time 7:06 AM CST 5:53 PM CST
Civil Twilight 6:37 AM CST 6:23 PM CST
Nautical Twilight 6:03 AM CST 6:57 PM CST
Astronomical Twilight 5:29 AM CST 7:31 PM CST
Moon 2:02 PM CST (2/21) 4:18 AM CST (2/21)
Length of Visible Light 11h 45m
Length of Day
10h 46m
Waxing Gibbous, 84% of the Moon is Illuminated
Feb 21
Waxing Gibbous
Feb 25
Full
Mar 4
Last Quarter
Mar 11
New
Mar 19
First Quarter

Hourly Weather History & Observations

Time (CST) Temp. Windchill Dew Point Humidity Pressure Visibility Wind Dir Wind Speed Gust Speed Precip Events Conditions
12:16 AM -0.0 °F - -4.7 °F 81% 30.36 in 10.0 mi Calm Calm - N/A   Clear
12:36 AM 2.5 °F - -2.0 °F 81% 30.36 in 10.0 mi Calm Calm - N/A   Clear
12:56 AM 3.0 °F - -2.9 °F 76% 30.37 in 10.0 mi Calm Calm - N/A   Clear
1:16 AM 0.3 °F - -4.5 °F 80% 30.37 in 10.0 mi Calm Calm - N/A   Clear
1:36 AM 0.1 °F - -4.5 °F 81% 30.38 in 10.0 mi Calm Calm - N/A   Clear
1:56 AM 0.1 °F -7.7 °F -4.2 °F 82% 30.39 in 10.0 mi NNE 3.5 mph - N/A   Clear
2:16 AM -1.1 °F - -5.4 °F 82% 30.39 in 10.0 mi Calm Calm - N/A   Clear
2:36 AM 1.0 °F - -3.1 °F 83% 30.39 in 10.0 mi Calm Calm - N/A   Clear
2:56 AM 1.4 °F - -3.5 °F 80% 30.39 in 10.0 mi Calm Calm - N/A   Clear
3:16 AM -2.4 °F - -6.2 °F 84% 30.39 in 10.0 mi Calm Calm - N/A   Clear
3:36 AM -0.4 °F - -4.4 °F 83% 30.39 in 10.0 mi Calm Calm - N/A   Clear
3:56 AM -0.9 °F - -4.7 °F 84% 30.38 in 10.0 mi Calm Calm - N/A   Clear
4:16 AM -1.3 °F - -4.9 °F 85% 30.37 in 10.0 mi Calm Calm - N/A   Clear
4:36 AM 1.2 °F -6.4 °F -2.9 °F 83% 30.35 in 10.0 mi NE 3.5 mph - N/A   Clear
4:56 AM 2.1 °F -7.4 °F -2.4 °F 81% 30.34 in 10.0 mi NE 4.6 mph - N/A   Clear
5:16 AM 2.1 °F -9.0 °F -2.2 °F 82% 30.32 in 10.0 mi NE 5.8 mph - N/A   Clear
5:56 AM 3.2 °F -6.2 °F -1.3 °F 82% 30.27 in 10.0 mi NE 4.6 mph - N/A   Clear
6:16 AM 4.5 °F -6.3 °F -0.2 °F 81% 30.33 in 10.0 mi East 5.8 mph - N/A   Clear
6:36 AM 3.0 °F -8.0 °F -1.5 °F 82% 30.39 in 10.0 mi SE 5.8 mph - N/A   Clear
6:56 AM 2.8 °F - -1.8 °F 81% 30.40 in 10.0 mi Calm Calm - N/A   Clear
7:16 AM 0.3 °F -9.5 °F -3.8 °F 83% 30.38 in 10.0 mi ENE 4.6 mph - N/A   Clear
7:36 AM 1.8 °F -5.8 °F -2.2 °F 83% 30.37 in 10.0 mi NE 3.5 mph - N/A   Clear
7:56 AM 3.2 °F -7.8 °F -1.3 °F 82% 30.37 in 10.0 mi ENE 5.8 mph - N/A   Clear
8:16 AM 4.8 °F -4.3 °F -0.4 °F 79% 30.36 in 10.0 mi NE 4.6 mph - N/A   Clear
8:36 AM 5.9 °F -3.0 °F 0.5 °F 78% 30.34 in 10.0 mi NE 4.6 mph - N/A   Clear
8:56 AM 6.4 °F -2.4 °F 0.7 °F 77% 30.35 in 10.0 mi NE 4.6 mph - N/A   Clear
9:16 AM 8.2 °F 1.6 °F 2.1 °F 76% 30.34 in 10.0 mi NE 3.5 mph - N/A   Clear
9:36 AM 9.9 °F 0.2 °F 3.0 °F 74% 30.32 in 10.0 mi NE 5.8 mph - N/A   Clear
9:56 AM 11.3 °F -1.3 °F 3.7 °F 72% 30.34 in 10.0 mi ENE 9.2 mph - N/A   Clear
10:16 AM 12.4 °F -0.8 °F 4.6 °F 71% 30.34 in 10.0 mi ENE 10.4 mph - N/A   Clear
10:36 AM 13.5 °F 1.3 °F 5.4 °F 70% 30.34 in 10.0 mi East 9.2 mph - N/A   Clear
11:16 AM 14.7 °F 2.9 °F 6.1 °F 69% 30.33 in 10.0 mi ENE 9.2 mph - N/A   Clear
11:36 AM 16.3 °F 4.1 °F 7.2 °F 67% 30.34 in 10.0 mi East 10.4 mph - N/A   Clear
11:56 AM 17.2 °F 6.0 °F 7.9 °F 67% 30.33 in 10.0 mi East 9.2 mph - N/A   Clear
12:16 PM 17.6 °F 5.7 °F 7.7 °F 65% 30.31 in 10.0 mi East 10.4 mph - N/A   Clear
12:36 PM 17.6 °F 5.7 °F 7.7 °F 65% 30.29 in 10.0 mi ENE 10.4 mph - N/A   Clear
12:56 PM 18.5 °F 6.1 °F 8.4 °F 65% 30.28 in 10.0 mi ENE 11.5 mph - N/A   Clear
1:16 PM 19.4 °F 7.9 °F 9.0 °F 64% 30.28 in 10.0 mi ENE 10.4 mph - N/A   Clear
1:36 PM 20.3 °F 10.6 °F 9.1 °F 62% 30.27 in 10.0 mi ENE 8.1 mph - N/A   Clear
1:56 PM 20.8 °F 11.2 °F 8.8 °F 60% 30.25 in 10.0 mi NE 8.1 mph - N/A   Clear
2:16 PM 21.0 °F 12.4 °F 9.3 °F 61% 30.24 in 10.0 mi NE 6.9 mph - N/A   Clear
2:36 PM 21.0 °F 12.4 °F 9.1 °F 60% 30.23 in 10.0 mi NE 6.9 mph - N/A   Clear
2:56 PM 21.0 °F 11.4 °F 8.6 °F 59% 30.22 in 10.0 mi NE 8.1 mph - N/A   Clear
3:16 PM 21.2 °F 12.6 °F 10.0 °F 62% 30.21 in 10.0 mi NNE 6.9 mph - N/A   Clear
3:36 PM 20.3 °F 12.5 °F 9.5 °F 63% 30.20 in 10.0 mi NNE 5.8 mph - N/A   Clear
3:56 PM 20.8 °F 12.1 °F 9.7 °F 62% 30.20 in 10.0 mi NE 6.9 mph - N/A   Clear
4:16 PM 20.3 °F 11.5 °F 9.3 °F 63% 30.19 in 10.0 mi NE 6.9 mph - N/A   Clear
4:36 PM 20.3 °F 11.5 °F 9.5 °F 63% 30.19 in 10.0 mi NE 6.9 mph - N/A   Clear
4:56 PM 20.3 °F 11.5 °F 9.9 °F 64% 30.18 in 10.0 mi NE 6.9 mph - N/A   Clear
5:16 PM 20.3 °F 11.5 °F 10.0 °F 65% 30.17 in 10.0 mi NE 6.9 mph - N/A   Clear
5:36 PM 20.3 °F 13.8 °F 10.4 °F 66% 30.17 in 10.0 mi NE 4.6 mph - N/A   Clear
5:56 PM 20.1 °F 12.3 °F 10.0 °F 65% 30.17 in 10.0 mi NE 5.8 mph - N/A   Clear
6:16 PM 19.9 °F 13.4 °F 10.2 °F 66% 30.17 in 10.0 mi NE 4.6 mph - N/A   Clear
6:36 PM 19.9 °F 12.1 °F 10.0 °F 65% 30.16 in 10.0 mi NE 5.8 mph - N/A   Clear
6:56 PM 19.9 °F 12.1 °F 10.4 °F 67% 30.15 in 10.0 mi NE 5.8 mph - N/A   Clear
7:16 PM 20.1 °F 12.3 °F 10.4 °F 66% 30.15 in 10.0 mi NE 5.8 mph - N/A   Clear
7:36 PM 20.1 °F 13.6 °F 10.8 °F 67% 30.14 in 10.0 mi NE 4.6 mph - N/A   Clear
7:56 PM 20.1 °F 12.3 °F 10.9 °F 68% 30.15 in 10.0 mi NE 5.8 mph - N/A   Clear
8:16 PM 20.3 °F 11.5 °F 11.1 °F 68% 30.15 in 10.0 mi NE 6.9 mph - N/A   Scattered Clouds
8:36 PM 20.3 °F 12.5 °F 11.3 °F 68% 30.14 in 10.0 mi NE 5.8 mph - N/A   Mostly Cloudy
9:16 PM 20.3 °F 15.4 °F 11.5 °F 69% 30.12 in 10.0 mi NE 3.5 mph - N/A   Overcast
9:36 PM 19.8 °F 14.7 °F 11.7 °F 71% 30.11 in 10.0 mi NNE 3.5 mph - N/A   Overcast
9:56 PM 19.8 °F 14.7 °F 11.7 °F 71% 30.10 in 10.0 mi NNE 3.5 mph - N/A   Overcast
10:16 PM 19.4 °F 11.5 °F 11.8 °F 72% 30.09 in 10.0 mi NNE 5.8 mph - N/A   Mostly Cloudy
10:36 PM 19.9 °F 11.1 °F 11.5 °F 70% 30.07 in 10.0 mi NE 6.9 mph - N/A   Overcast
10:56 PM 20.3 °F 12.5 °F 11.7 °F 69% 30.07 in 10.0 mi NE 5.8 mph - N/A   Overcast
11:16 PM 20.1 °F 12.3 °F 11.8 °F 70% 30.06 in 10.0 mi ENE 5.8 mph - N/A   Overcast
11:36 PM 20.1 °F 13.6 °F 12.0 °F 71% 30.05 in 10.0 mi NE 4.6 mph - N/A   Overcast
11:56 PM 20.3 °F 11.5 °F 12.2 °F 71% 30.04 in 10.0 mi NNE 6.9 mph - N/A   Overcast